Hourly Weather Roundup
Issued by NWS Central Illinois

Home | Current Version | Previous Version | Text Only | Print | Product List | Glossary On
Versions: 1 2 3 4 5 6 7 8 9 10 11 12 13 14 15 16 17 18 19 20 21 22 23 24 25 26 27 28 29 30 31 32 33 34 35 36 37 38 39 40 41 42 43 44 45 46 47 48 49 50
000
NZUS43 KILX 030510
HWRILX

AREA WEATHER ROUNDUP
NATIONAL WEATHER SERVICE, LINCOLN IL
1200 AM CDT THU SEP 03 2015


CITY           SKY/WX    TMP DP  RH WIND       PRES   REMARKS
BLOOMINGTON    CLEAR     72  69  90 SW5       30.02S
CHAMPAIGN      CLEAR     71  67  87 S6        30.02S
DANVILLE       CLEAR     67  66  97 CALM      29.99S
DECATUR        CLEAR     75  66  73 S6        30.01S
EFFINGHAM      CLEAR     70  67  90 CALM      30.03S
FLORA          PTCLDY    69  66  91 SE3       30.02S
GALESBURG      MOCLDY    73  69  86 S5        29.98S
JACKSONVILLE   CLEAR     76  69  77 S3        29.99S
LACON          PTCLDY    74  67  77 S3        29.97S
LAWRENCEVILLE  PTCLDY    72  69  90 CALM      30.02S
LITCHFIELD     CLEAR     73  68  86 S5        30.01S
$$


CITY           SKY/WX    TMP DP  RH WIND       PRES   REMARKS
LINCOLN        CLEAR     73  66  79 CALM      29.99S
MACOMB         MOCLDY    75  69  80 S5        30.00S
MATTOON        CLEAR     74  69  85 S3        30.01S
MT CARMEL AP   PTCLDY    68  66  94 CALM      30.02S FOG
OLNEY-NOBLE AP PTCLDY    68  68 100 CALM      30.02F
PARIS          CLEAR     69  67  96 SW3       30.03S
PEORIA         PTCLDY    76  66  71 S5        29.99R
PONTIAC        PTCLDY    70  69  95 CALM      30.00S
RANTOUL        CLEAR     74  69  87 CALM      30.01S
ROBINSON       PTCLDY    68  67  96 CALM      30.03S
SPRINGFIELD    CLEAR     73  67  81 CALM      30.00S
TAYLORVILLE    CLEAR     72  68  88 S5        30.01S
$$

...REGIONAL REPORTS...


CITY           SKY/WX    TMP DP  RH WIND       PRES   REMARKS
CHICAGO O`HARE MOCLDY    79  67  66 SW6       29.97S HX  81
KANKAKEE       PTCLDY    74  70  88 SW7       30.00S
MOLINE         PTCLDY    75  67  76 SW5       29.95F
MOUNT STERLING CLEAR     72  68  88 S5        29.98S
MOUNT VERNON     N/A     66  63  88 CALM      30.03S VSB 3/4
PITTSFIELD     CLEAR     74  68  83 S5        30.00S
QUINCY         PTCLDY    76  69  79 S7        29.98S
ROCKFORD       MOCLDY    75  69  81 S5        29.98R
$$


CITY           SKY/WX    TMP DP  RH WIND       PRES   REMARKS
BURLINGTON     CLOUDY    75  69  81 S6        29.96S
CEDAR RAPIDS   CLEAR     71  71 100 S6        29.94S
DES MOINES     PTCLDY    76  70  82 S8        29.91F
KIRKSVILLE     PTCLDY    76  68  76 S7        29.98S
OTTUMWA        PTCLDY    73  70  90 S8        29.93S
ST LOUIS       CLEAR     82  69  64 S6        30.00F HX  85
$$


CITY           SKY/WX    TMP DP  RH WIND       PRES   REMARKS
TERRE HAUTE    CLEAR     68  66  93 CALM      30.02S
EVANSVILLE     CLEAR     74  69  85 CALM      30.03S
INDIANAPOLIS   CLEAR     73  68  84 SW3       30.03S
LAFAYETTE      CLEAR     71  68  90 CALM      30.01S
MADISON        CLOUDY    76  69  79 SW3       29.94F
MILWAUKEE      MOCLDY    76  70  82 S7        29.95S
$$





USA.gov is the U.S. government's official web portal to all federal, state and local government web resources and services.